Weather History for KEVV - May, 2013

Change the Weather History Date:

Thursday, May 2, 2013

  Actual Average Record
Temperature  
Mean Temperature 70 °F 62 °F  
Max Temperature 79 °F 73 °F 91 °F (1959)
Min Temperature 60 °F 50 °F 32 °F (1963)
Degree Days  
Heating Degree Days 0 5  
Month to date heating degree days 0 10  
Since 1 July heating degree days 4448 4465  
Cooling Degree Days 5 1  
Month to date cooling degree days 7 2  
Year to date cooling degree days 41 29  
Growing Degree Days 20 (Base 50)    
Moisture  
Dew Point 56 °F    
Average Humidity 66    
Maximum Humidity 84    
Minimum Humidity 48    
Precipitation  
Precipitation T in 0.17 in 3.50 in (1935)
Month to date precipitation T 0.33  
Year to date precipitation 17.47 15.21  
Snow  
Snow 0.00 in 0.00 in T in (1952)
Month to date snowfall 0.0 0.0  
Since 1 July snowfall 12.3 11.8  
Snow Depth 0.00 in    
Sea Level Pressure  
Sea Level Pressure 30.09 in    
Wind  
Wind Speed 6 mph (South)    
Max Wind Speed 13 mph    
Max Gust Speed 16 mph    
Visibility 10 miles    
Events Rain    
T = Trace of Precipitation, MM = Missing Value Source: NWS Daily Summary

Daily Weather History Graph

Daily Weather History Graph

Search for Another Location

Airport or City:

Trip Planner

Search our weather history database for the weather conditions in past years. The results will help you decide how hot, cold, wet, or windy it might be!

Date:

Astronomy

May. 02, 2013 Rise Set
Actual Time 5:52 AM CDT 7:42 PM CDT
Civil Twilight 5:23 AM CDT 8:10 PM CDT
Nautical Twilight 4:49 AM CDT 8:45 PM CDT
Astronomical Twilight 4:12 AM CDT 9:22 PM CDT
Moon 1:32 AM CDT (5/2) 12:38 PM CDT (5/2)
Length of Visible Light 14h 46m
Length of Day
13h 49m
Waning Gibbous, 47% of the Moon is Illuminated
May 2
Waning Gibbous
May 9
New
May 17
First Quarter
May 24
Full
May 31
Last Quarter

Hourly Weather History & Observations

Time (CDT) Temp. Dew Point Humidity Pressure Visibility Wind Dir Wind Speed Gust Speed Precip Events Conditions
12:54 AM 62.1 °F 57.0 °F 84% 30.09 in 10.0 mi Calm Calm - N/A   Clear
1:54 AM 63.0 °F 57.9 °F 84% 30.08 in 10.0 mi Calm Calm - N/A   Clear
2:54 AM 60.1 °F 55.9 °F 86% 30.08 in 10.0 mi NE 3.5 mph - N/A   Clear
3:54 AM 63.0 °F 55.9 °F 78% 30.06 in 10.0 mi NE 3.5 mph - N/A   Clear
4:54 AM 63.0 °F 55.9 °F 78% 30.08 in 10.0 mi ENE 3.5 mph - N/A   Mostly Cloudy
5:54 AM 63.0 °F 55.9 °F 78% 30.10 in 10.0 mi East 3.5 mph - N/A   Mostly Cloudy
6:54 AM 64.0 °F 57.0 °F 78% 30.13 in 10.0 mi SSW 5.8 mph - N/A   Mostly Cloudy
7:54 AM 66.0 °F 57.0 °F 73% 30.16 in 10.0 mi SSW 6.9 mph - N/A   Mostly Cloudy
8:54 AM 70.0 °F 57.0 °F 63% 30.15 in 10.0 mi SW 9.2 mph - N/A   Scattered Clouds
9:54 AM 71.1 °F 57.0 °F 61% 30.15 in 10.0 mi South 10.4 mph - N/A   Clear
10:54 AM 73.9 °F 57.0 °F 55% 30.14 in 10.0 mi SSW 8.1 mph - N/A   Clear
11:54 AM 75.9 °F 55.9 °F 50% 30.14 in 10.0 mi Variable 6.9 mph - N/A   Scattered Clouds
12:54 PM 75.9 °F 57.0 °F 52% 30.12 in 10.0 mi South 8.1 mph - N/A   Partly Cloudy
1:54 PM 75.9 °F 55.9 °F 50% 30.11 in 10.0 mi SW 10.4 mph - N/A   Clear
2:54 PM 75.9 °F 55.0 °F 48% 30.09 in 10.0 mi SSW 4.6 mph - N/A   Clear
3:54 PM 78.1 °F 57.0 °F 48% 30.06 in 10.0 mi South 8.1 mph - N/A   Partly Cloudy
4:54 PM 75.9 °F 55.9 °F 50% 30.04 in 10.0 mi South 5.8 mph - N/A   Partly Cloudy
5:54 PM 75.9 °F 55.0 °F 48% 30.04 in 10.0 mi South 9.2 mph - N/A   Clear
6:54 PM 73.9 °F 55.0 °F 52% 30.04 in 10.0 mi South 6.9 mph - N/A   Clear
7:54 PM 73.0 °F 54.0 °F 51% 30.05 in 10.0 mi SSE 6.9 mph - N/A   Scattered Clouds
8:54 PM 71.1 °F 54.0 °F 55% 30.05 in 10.0 mi SSE 3.5 mph - N/A   Clear
9:54 PM 70.0 °F 54.0 °F 57% 30.05 in 10.0 mi Calm Calm - N/A   Clear
10:54 PM 64.0 °F 55.9 °F 75% 30.04 in 10.0 mi NE 3.5 mph - N/A   Scattered Clouds
11:54 PM 68.0 °F 55.9 °F 65% 30.04 in 10.0 mi SSE 6.9 mph - 0.00 in Rain Light Rain